Regional Weather Roundup
Issued by NWS

Home | Current Version | Previous Version | Text Only | Print | Product List | Glossary Off
Versions: 1 2 3 4 5 6 7 8 9 10 11 12 13 14 15 16 17 18 19 20 21 22 23 24 25 26 27 28 29 30 31 32 33 34 35 36 37 38 39 40 41 42 43 44 45 46 47 48 49 50

311
ASUS43 KLMK 181010
RWRKY
KENTUCKY REGIONAL WEATHER ROUNDUP
NATIONAL WEATHER SERVICE LOUISVILLE KY
500 AM EST THU JAN 18 2018

NOTE "FAIR" INDICATES FEW OR NO CLOUDS BELOW 12,000 FEET
WITH NO SIGNIFICANT WEATHER AND/OR OBSTRUCTIONS TO VISIBILITY.

KYZ001>023-026-027-061>063-070>075-181100-
WESTERN AND SOUTH CENTRAL KENTUCKY

CITY           SKY/WX    TMP DP  RH WIND       PRES   REMARKS
PADUCAH        FAIR      10   5  80 SW6       30.51F WCI   0
HENDERSON      FAIR      10   7  87 SW10      30.48F WCI  -4
OWENSBORO      FAIR       8   4  83 S8        30.49F WCI  -4
HOPKINSVILLE   FAIR       8   4  86 SW7       30.51F WCI  -4
BOWLING GREEN  FAIR       8   5  87 SW5       30.52F WCI   0
GLASGOW        FAIR       3   1  89 CALM      30.50R
$$

KYZ024-025-028>034-038-045-046-053-181100-
NORTH CENTRAL KENTUCKY

CITY           SKY/WX    TMP DP  RH WIND       PRES   REMARKS
LOUISVILLE/SDF FAIR      13   7  77 SW10      30.47F WCI   0
LOUISVILLE/LOU FAIR      10   6  84 S5        30.48S WCI   2
FORT KNOX      FAIR       6   2  85 SW5       30.45S WCI  -3
$$

KYZ035>037-039>044-047>052-055>060-089>105-181100-
NORTHEAST KENTUCKY

CITY           SKY/WX    TMP DP  RH WIND       PRES   REMARKS
LEXINGTON      FAIR       6   1  80 SW8       30.43F WCI  -7
COVINGTON      FAIR      11   7  84 SW9       30.37F WCI  -2
FRANKFORT      FAIR       7   1  76 SW8       30.44S WCI  -6
$$

KYZ054-064>069-076>088-106>120-181100-
SOUTHEAST KENTUCKY

CITY           SKY/WX    TMP DP  RH WIND       PRES   REMARKS
JACKSON        FAIR       7   4  87 SW3       30.40S
LONDON         CLOUDY     4   1  88 CALM      30.45S
SOMERSET       FAIR       3   0  85 CALM      30.49F
MIDDLESBORO    FAIR       6   4  91 CALM      30.47R
MONTICELLO     FAIR      -4  -8  83 W3        30.50F
$$





USA.gov is the U.S. government's official web portal to all federal, state and local government web resources and services.